Regional Weather Roundup
Issued by NWS Bismarck, ND

Home | Current Version | Previous Version | Text Only | Print | Product List | Glossary On
Versions: 1 2 3 4 5 6 7 8 9 10 11 12 13 14 15 16 17 18 19 20 21 22 23 24 25 26 27 28 29 30 31 32 33 34 35 36 37 38 39 40 41 42 43 44 45 46 47 48 49 50
000
ASUS43 KBIS 240110
RWRBIS

NWR BROADCAST TEXT
NATIONAL WEATHER SERVICE BISMARCK ND
800 PM CDT MON OCT 23 2017

NOTE: "FAIR" INDICATES FEW OR NO CLOUDS BELOW 12,000 FEET WITH NO
SIGNIFICANT WEATHER AND/OR OBSTRUCTIONS TO VISIBILITY.


CITY           SKY/WX    TMP DP  RH WIND       PRES   REMARKS
WILLISTON      CLEAR     48  28  46 NW14      30.36R
MINOT          CLEAR     45  31  58 NW13      30.25R
MINOT AFB      CLEAR     44  31  60 NW16      30.23R
BISMARCK       CLEAR     50  31  48 NW21G31   30.24R
DICKINSON      CLEAR     47  26  44 NW17      30.31R
GARRISON         N/A     44  32  62 NW17      30.26R
HETTINGER ARPT CLEAR     47  23  38 NW18      30.33R
JAMESTOWN      PTCLDY    44  32  62 NW23G31   30.14R
CARRINGTON     FAIR      43  32  65 NW14      30.18R
HAZEN          FAIR      48  30  49 NW20      30.29R
LINTON           N/A     50  30  46 N22G31    30.22R
RUGBY            N/A     41  28  60 NW14      30.19R
STANLEY        FAIR      43  28  56 NW12G17   30.32R
TIOGA          FAIR      43  27  52 NW12      30.33R
WATFORD CITY   FAIR      46  28  49 NW10      30.34R
$$

CITY           SKY/WX    TMP DP  RH WIND       PRES   REMARKS
GRAND FORKS    CLEAR     40  30  67 N17G30    30.10R
GRAND FORKS AF CLEAR     39  28  64 N13       30.11R
DEVILS LAKE    CLEAR     44  27  51 NW21      30.15R
FARGO          CLEAR     43  30  60 N17G28    30.07R
CANDO          FAIR      41  27  56 NW15      30.19R
CAVALIER       FAIR      39  30  70 N14G23    30.14R
GRAFTON        FAIR      39  30  70 N16G23    30.14R
GWINNER          N/A     46  37  71 NW16G23   30.08R
LANGDON        FAIR      36  28  75 N10       30.15R
ROLLA          FAIR      39  25  56 NW18      30.18R
WALHALLA       FAIR     N/A N/A N/A NW13      30.15R
$$

CITY           SKY/WX    TMP DP  RH WIND       PRES   REMARKS
ABERDEEN       CLOUDY    50  36  58 NW26G32   30.13R
MOBRIDGE       CLOUDY    54  28  36 N20G31    30.18R
BUFFALO          N/A     50  23  34 NW29G38   30.31R
RAPID CITY     CLEAR     46  22  38 NW15      30.38R
GLASGOW        CLEAR     47  23  38 NW14      30.45R
SIDNEY         CLEAR     48  27  44 NW9       30.39R
WOLF POINT     CLEAR     49  22  34 NW13      30.42R
GLENDIVE       CLEAR     49  23  36 NW20      30.41R
MILES CITY     CLEAR     48  26  42 NW13      30.47R
BAKER          CLEAR     47  27  45 NW16G25   30.41R
$$

CITY           SKY/WX    TMP DP  RH WIND       PRES   REMARKS
BILLINGS       CLOUDY    46  21  37 NW10      30.53R
GREAT FALLS    CLEAR     39  19  44 W10       30.54R
REGINA         CLEAR     43  30  61 W13       30.33R
ESTEVAN        PTCLDY    37  25  60 NW9       30.30R
$$





USA.gov is the U.S. government's official web portal to all federal, state and local government web resources and services.